Regional Weather Roundup
Issued by NWS Upton, NY

Current Version | Previous Version | Text Only | Print | Product List | Glossary On
Versions: 1 2 3 4 5 6 7 8 9 10 11 12 13 14 15 16 17 18 19 20 21 22 23 24 25 26 27 28 29 30 31 32 33 34 35 36 37 38 39 40 41 42 43 44 45 46 47 48 49 50
000
ASUS41 KOKX 301605
RWROKX

REGIONAL WEATHER ROUNDUP
NATIONAL WEATHER SERVICE NEW YORK NY
1200 PM EDT WED JUL 30 2014

NOTE: "FAIR" INDICATES FEW OR NO CLOUDS BELOW 12,000 FEET WITH NO
SIGNIFICANT WEATHER AND/OR OBSTRUCTIONS TO VISIBILITY.

NYZ071-072-176-178-NJZ106-104-301700-
NEW YORK CITY METRO AREA


CITY           SKY/WX    TMP DP  RH WIND       PRES   REMARKS
CENTRAL PARK   FAIR      76  48  37 W5        30.05F
LAGUARDIA APRT FAIR      77  47  34 VRB6      30.02F
KENNEDY INTL   FAIR      76  52  43 S10       30.03F
NEWARK/LIBERTY FAIR      78  47  33 W9        30.02F
BRNX BOT. GARD   N/A     75  50  41 W3        30.04R
TETERBORO      FAIR      79  49  34 W6        30.01F
$$

NYZ177-179-078>081-301700-
LONG ISLAND NEW YORK

CITY           SKY/WX    TMP DP  RH WIND       PRES   REMARKS
FARMINGDALE    FAIR      75  50  41 CALM      30.03S
ISLIP          FAIR      77  51  40 N8        30.01S
SHIRLEY        FAIR      77  51  40 VRB5      30.03S
WESTHAMPTON    PTSUNNY   75  57  53 SE8       30.03S
MONTAUK POINT    N/A     76  53  44 CALM      30.03S
$$

NYZ052-065-067-301700-
HUDSON VALLEY

CITY           SKY/WX    TMP DP  RH WIND       PRES   REMARKS
WHITE PLAINS   FAIR      74  50  42 NW7       30.03F
NEWBURGH       NOT AVBL
MONTGOMERY     FAIR      74  53  48 S7        30.03F
POUGHKEEPSIE   FAIR      74  53  48 VRB3      30.02F
ALBANY         FAIR      72  53  51 VRB5      30.03F
$$

NJZ001-105-106-008-010-013-015-019>022-104-301700-
NEW JERSEY

CITY           SKY/WX    TMP DP  RH WIND       PRES   REMARKS
NEWARK/LIBERTY FAIR      78  47  33 W9        30.02F
TETERBORO      FAIR      79  49  34 W6        30.01F
CALDWELL       FAIR      74  49  41 W5        30.03F
MORRISTOWN     MOSUNNY   75  52  43 CALM      30.03F
SOMERVILLE     FAIR      76  51  41 VRB3      30.02F
LINDEN         FAIR      77  48  35 W7        30.04F
SUSSEX         FAIR      75  52  44 S7        30.04S
ANDOVER          N/A     72  52  49 MISG      30.05S
TRENTON        FAIR      74  51  44 VRB6      30.04F
MILLVILLE      FAIR      75  51  43 SW5       30.06S
ATLANTIC CITY  FAIR      75  53  46 NW6       30.05S
WRIGHTSTOWN    FAIR      75  53  46 VRB5      30.03S
TOMS RIVER     FAIR      75  48  38 CALM      30.04F
BELMAR         FAIR      75  52  43 W8        30.04S
$$

PAZ047>061-062-071-301700-
EASTERN PENNSYLVANIA

CITY           SKY/WX    TMP DP  RH WIND       PRES   REMARKS
PHILADELPHIA   FAIR      75  50  41 SW8       30.05F
ALLENTOWN      FAIR      73  51  46 W7        30.05F
SCRANTON       FAIR      71  49  45 VRB6      30.05F
$$

CTZ002-004>006-009-010-012-RIZ004-006-007-MAZ004-011-015-301700-
SOUTHERN NEW ENGLAND
 IN CT

CITY           SKY/WX    TMP DP  RH WIND       PRES   REMARKS
BRADLEY INTL   FAIR      76  54  46 NW7       30.01F
HARTFORD       FAIR      74  50  42 VRB5      30.01F
DANBURY        FAIR      73  52  47 VRB3      30.04F
WTRBRY/OXFORD  MOSUNNY   72  54  53 VRB6      30.06S
BRIDGEPORT     FAIR      74  57  55 S9        30.02F
MERIDEN        FAIR      76  49  38 NW6       30.02S
NEW HAVEN      FAIR      77  55  46 VRB6      30.02F
CHESTER        FAIR      73  52  46 W5        30.03F
GROTON         FAIR      71  60  68 S8        30.01S
WILLIMANTIC    FAIR      76  52  43 VRB3      30.02S

 IN RI

CITY           SKY/WX    TMP DP  RH WIND       PRES   REMARKS
PROVIDENCE     FAIR      78  49  35 W7G17     30.01S
BLOCK ISLAND   FAIR      75  54  46 SW7       30.03S
WESTERLY       FAIR      76  51  41 SW9       30.02S

 IN MA

CITY           SKY/WX    TMP DP  RH WIND       PRES   REMARKS
BOSTON         FAIR      76  47  35 SW9       30.00S
WORCESTER      PTSUNNY   70  50  49 W7        30.03S
WESTFIELD      FAIR      74  57  55 VRB3      30.01F
PROVINCETOWN   FAIR      77  55  47 SW7       30.01S
NANTUCKET      FAIR      72  61  68 SW8       30.01S
$$

ANZ330-335-338-340-345-350-353-355-301700-
COASTAL MARINE OBSERVATIONS


STATION/POSITION TIME  SKY/WX   TEMP    WIND        PRES    VSBY  WAVE
                                AIR SEA DIR/SP/G                  HT/PER
                 (UTC)          (F)     (DEG/KT/KT) (MB)    (MI)  (FT/S)
NY HARB ENTRANCE NOT AVBL
4S FIRE IS       NOT AVBL
23SW MTP         1600            72 72              1016.3          3/ 8
HUDSON CANYON    1600            72 76  220/  4/  6 1016.7          3/ 8
EXECUTION ROCKS  1600            71 72  100/  4/  6   N/A
WESTERN LI SOUND 1600            70     170/  4/  6   N/A           0
CENTRAL LI SOUND 1500            69 72  270/  6/  6   N/A           0
EASTERN LI SOUND 1500            69 69  210/  6/  6   N/A
ROBBINS REEF     1600            73     280/  5/  7   N/A
$$


>>>>>>>>>>>>>>>>>>>>>>>>>>>> KEY <<<<<<<<<<<<<<<<<<<<<<<<<<<
>                                                          <
>     SKY/WX - SKY CONDITION/PRESENT WEATHER               <
>     TMP    - TEMPERATURE IN FAHRENHEIT                   <
>     DP     - DEWPOINT IN FAHRENHEIT                      <
>     RH     - RELATIVE HUMIDITY IN PERCENT                <
>     WIND   - DIRECTION AND SPEED IN MPH                  <
>     PRES   - MEAN SEA LEVEL PRESSURE IN INCHES OF HG     <
>     WCI    - WIND CHILL INDEX                            <
>     VSB    - VISIBILITY IN MILES                         <
>     HX     - HEAT INDEX                                  <
>     TC     - TEMPERATURE IN CELSIUS                      <
>     VRB    - VARIABLE WIND DIRECTION                     <
>                                                          <
>>>>>>>>>>>>>>>>>>>>>>>>>>>> KEY <<<<<<<<<<<<<<<<<<<<<<<<<<<




USA.gov is the U.S. government's official web portal to all federal, state and local government web resources and services.